Kezdőlap
METAR-TAF:

METAR-TAF

Repülőterek :

Denison Municipal Airport

Denison, Iowa, Amerikai Egyesült Államok

földrajzi szélesség: 41-59N, földrajzi hosszúság: 095-23W, magasság: 388 m

Jelenlegi meteorológiai megfigyelések

A jelentés 36 perccel ezelõtt készült, 16:35 UTC
Északi szél 13 kt
Hőmérséklet 8°C
Páratartalom 76%
Légköri nyomás 1022 hPa
Látótávolság: 16.1 km
Szórványos felhőzet 4400 lábon

METAR: KDNS 181635Z AUTO 36013KT 10SM SCT044 08/04 A3018 RMK AO2

Idő: 12:11 (17:11 UTC)


TAF: hiányzik

Meteorológiai megfigyelések és előrejelzések több, mint 4000 repülőtéren (METAR és TAF jelentéseket).

A térképen piros és sárga pontok jelzik az elérhető meteorológiai állomásokat.

Mozgassa az egeret a pont fölött, hogy megjelenjen az állomás neve.

Azután kattintson az időjárási megfigyelések és előrejelzések megtekintéséhez.

A térkép megváltoztatása: kattintson a fekete keresztel jelölt zöld gombra ráközelítéshez, a vonallal jelölt zöld gombra távolításhoz, vagy a zöld nyilakra a szomszédos térképek eléréséhez.


METAR-TAF: